SAS927 EKCH-KBOS

Flight info

Callsign SAS927
Flight time N/A
Altitude 38000
Route ODDON P60 AMRAM L983 PETIL DCT CUTEL DCT GOMOT DCT SAB DCT CLYDE DCT TUXOS DCT MIMKU DCT PIKIL/M080F390 DCT 57N020W 57N030W 57N040W 56N050W DCT JANJO/N0470F400 N712B QUBIS DCT PQI DCT MLT DCT BGR DCT AJJAY OOSHN5
Aircraft A333/H-SDE3GHIJ2J3J5M1RVWXY/LB2D1

Departure

Time N/A
Airport Copenhagen Kastrup Airport (EKCH)

Arrival

Time 2026-05-05 03:41
Airport Boston Logan International Airport (KBOS)
Time Latitude Longitude Altitude Speed Heading
2026-05-05 03:24 42.59413 -70.38636 22368 ft 317 kts 268°
2026-05-05 03:24 42.59280 -70.41607 21545 ft 313 kts 268°
2026-05-05 03:24 42.59146 -70.44541 20744 ft 309 kts 267°
2026-05-05 03:24 42.59011 -70.47451 19947 ft 306 kts 267°
2026-05-05 03:25 42.58876 -70.50316 19178 ft 302 kts 266°
2026-05-05 03:25 42.58743 -70.53115 18441 ft 299 kts 266°
2026-05-05 03:25 42.58579 -70.55913 17610 ft 297 kts 262°
2026-05-05 03:25 42.58132 -70.58633 16760 ft 295 kts 256°
2026-05-05 03:26 42.57564 -70.61297 15936 ft 293 kts 255°
2026-05-05 03:26 42.56981 -70.63931 15140 ft 290 kts 255°
2026-05-05 03:26 42.56414 -70.66543 14362 ft 287 kts 257°
2026-05-05 03:26 42.56224 -70.69213 13541 ft 284 kts 276°
2026-05-05 03:27 42.56852 -70.71735 12683 ft 284 kts 298°
2026-05-05 03:27 42.57991 -70.73923 12012 ft 279 kts 306°
2026-05-05 03:27 42.59181 -70.75851 11982 ft 254 kts 312°
2026-05-05 03:27 42.60606 -70.77164 11638 ft 250 kts 336°
2026-05-05 03:28 42.62365 -70.77349 10956 ft 264 kts
2026-05-05 03:28 42.64138 -70.76625 10367 ft 267 kts 16°
2026-05-05 03:28 42.65873 -70.75730 9831 ft 266 kts 17°
2026-05-05 03:28 42.67575 -70.74841 9287 ft 263 kts 17°
2026-05-05 03:29 42.69316 -70.73929 9021 ft 265 kts 17°
2026-05-05 03:29 42.70981 -70.73061 8754 ft 253 kts 15°
2026-05-05 03:29 42.72652 -70.72588 8365 ft 241 kts 358°
2026-05-05 03:29 42.74273 -70.72886 7872 ft 231 kts 335°
2026-05-05 03:30 42.75583 -70.74023 7383 ft 219 kts 310°
2026-05-05 03:30 42.76346 -70.75770 6886 ft 215 kts 284°
2026-05-05 03:30 42.76445 -70.77772 6520 ft 213 kts 260°
2026-05-05 03:30 42.75905 -70.79622 6185 ft 212 kts 238°
2026-05-05 03:31 42.74859 -70.81031 5889 ft 213 kts 219°
2026-05-05 03:31 42.73564 -70.82025 5544 ft 214 kts 209°
2026-05-05 03:31 42.72184 -70.82785 5221 ft 213 kts 205°
2026-05-05 03:31 42.70791 -70.83436 4902 ft 211 kts 203°
2026-05-05 03:32 42.69407 -70.84062 4597 ft 208 kts 204°
2026-05-05 03:32 42.68041 -70.84703 4243 ft 207 kts 204°
2026-05-05 03:32 42.66729 -70.85459 4009 ft 203 kts 211°
2026-05-05 03:32 42.65465 -70.86295 3987 ft 202 kts 210°
2026-05-05 03:33 42.64171 -70.87056 3991 ft 203 kts 207°
2026-05-05 03:33 42.62848 -70.87736 3987 ft 203 kts 205°
2026-05-05 03:33 42.61523 -70.88385 3902 ft 201 kts 205°
2026-05-05 03:33 42.60229 -70.89002 3693 ft 193 kts 205°
2026-05-05 03:34 42.58978 -70.89594 3488 ft 188 kts 204°
2026-05-05 03:34 42.57764 -70.90169 3309 ft 180 kts 205°
2026-05-05 03:34 42.56601 -70.90728 3121 ft 176 kts 206°
2026-05-05 03:34 42.55468 -70.91281 3003 ft 174 kts 206°
2026-05-05 03:35 42.54372 -70.91819 2990 ft 160 kts 206°
2026-05-05 03:35 42.53355 -70.92318 2992 ft 153 kts 206°
2026-05-05 03:35 42.52370 -70.92802 2982 ft 147 kts 206°
2026-05-05 03:35 42.51435 -70.93258 2943 ft 137 kts 208°
2026-05-05 03:36 42.50593 -70.93669 2800 ft 121 kts 207°
2026-05-05 03:36 42.49833 -70.94040 2634 ft 113 kts 207°
2026-05-05 03:36 42.49095 -70.94400 2484 ft 112 kts 207°
2026-05-05 03:36 42.48369 -70.94753 2335 ft 110 kts 208°
2026-05-05 03:37 42.47652 -70.95101 2167 ft 108 kts 208°
2026-05-05 03:37 42.46949 -70.95443 2035 ft 107 kts 208°
2026-05-05 03:37 42.46254 -70.95781 1899 ft 107 kts 209°
2026-05-05 03:37 42.45560 -70.96118 1753 ft 105 kts 208°
2026-05-05 03:38 42.44875 -70.96450 1613 ft 104 kts 208°
2026-05-05 03:38 42.44188 -70.96784 1465 ft 106 kts 208°
2026-05-05 03:38 42.43493 -70.97122 1325 ft 107 kts 206°
2026-05-05 03:38 42.42777 -70.97471 1189 ft 111 kts 206°
2026-05-05 03:39 42.42056 -70.97827 1146 ft 111 kts 207°
2026-05-05 03:39 42.41315 -70.98202 922 ft 116 kts 203°
2026-05-05 03:39 42.40546 -70.98563 735 ft 118 kts 200°
2026-05-05 03:39 42.39774 -70.98917 549 ft 119 kts 200°
2026-05-05 03:40 42.38995 -70.99318 419 ft 121 kts 201°
2026-05-05 03:40 42.38215 -70.99682 241 ft 117 kts 200°
2026-05-05 03:40 42.37442 -71.00051 97 ft 119 kts 201°
2026-05-05 03:40 42.36672 -71.00422 29 ft 110 kts 199°
2026-05-05 03:41 42.36134 -71.00687 30 ft 51 kts 200°
2026-05-05 03:41 42.35998 -71.00790 31 ft 18 kts 229°
2026-05-05 03:41 42.35920 -71.00914 29 ft 18 kts 230°
2026-05-05 03:41 42.35843 -71.01049 29 ft 18 kts 246°
2026-05-05 03:42 42.35842 -71.01217 29 ft 19 kts 278°
2026-05-05 03:42 42.35863 -71.01403 29 ft 21 kts 278°
2026-05-05 03:42 42.35896 -71.01523 29 ft 10 kts 330°
2026-05-05 03:42 42.35969 -71.01511 29 ft 12 kts 18°
2026-05-05 03:43 42.36054 -71.01469 29 ft 14 kts 21°
2026-05-05 03:43 42.36157 -71.01420 29 ft 17 kts 19°
2026-05-05 03:43 42.36276 -71.01362 29 ft 19 kts 20°
2026-05-05 03:43 42.36409 -71.01297 29 ft 21 kts 20°
2026-05-05 03:44 42.36552 -71.01228 29 ft 23 kts 19°
2026-05-05 03:44 42.36696 -71.01158 29 ft 20 kts 19°
2026-05-05 03:44 42.36823 -71.01190 29 ft 19 kts 317°
2026-05-05 03:44 42.36924 -71.01324 29 ft 21 kts 316°
2026-05-05 03:45 42.37030 -71.01467 29 ft 22 kts 316°
2026-05-05 03:45 42.37132 -71.01605 29 ft 15 kts 311°
2026-05-05 03:45 42.37113 -71.01706 29 ft 11 kts 214°
2026-05-05 03:45 42.37103 -71.01713 29 ft 1 kts 210°
2026-05-05 03:46 42.37102 -71.01717 29 ft 0 kts 230°
2026-05-05 03:46 42.37102 -71.01721 29 ft 1 kts 244°
2026-05-05 03:46 42.37095 -71.01739 29 ft 3 kts 241°
2026-05-05 03:46 42.37076 -71.01767 29 ft 3 kts 220°
2026-05-05 03:47 42.37071 -71.01771 29 ft 1 kts 215°
2026-05-05 03:47 42.37059 -71.01781 28 ft 3 kts 210°
2026-05-05 03:47 42.37042 -71.01793 29 ft 1 kts 207°